Theta_e
307 308 308 307 306 307 307 309 305 308 309 313 317 318 321 326 328 328 330 331 333 335 339 343 350 355 361 354 355 357 360 354 356 358 359 359 364 366 363 364 366 369 369 369
304 307 307 305 307 307 308 308 308 309 309 315 318 320 323 325 327 327 329 330 332 335 338 338 344 350 355 358 356 361 365 359 364 369 370 370 372 371 370 367 369 371 369 370
299 305 304 301 305 307 308 310 309 306 311 317 315 317 323 325 326 326 328 330 332 334 336 339 343 342 348 358 360 362 367 368 369 372 372 373 375 372 369 369 370 371 371 370
298 301 293 304 311 310 309 310 312 312 313 316 321 322 322 325 325 327 329 331 332 334 337 341 344 347 342 347 363 364 366 368 370 372 372 373 372 370 369 370 371 371 369 369
296 297 301 303 307 308 308 308 315 316 316 319 320 320 321 326 326 328 330 332 334 337 340 345 346 351 351 345 353 362 363 365 368 371 370 371 370 371 371 370 356 346 349 349
298 294 293 303 309 313 312 303 317 319 317 316 317 312 318 325 327 328 330 331 335 337 340 344 349 349 343 342 349 358 362 366 370 371 371 370 372 372 372 361 348 343 341 347
296 295 300 307 310 315 301 305 317 318 317 316 315 319 323 326 327 330 330 332 336 337 339 344 350 345 341 343 346 351 362 365 370 371 373 370 371 370 355 348 347 347 342 346
299 296 294 310 310 306 313 316 318 316 317 316 318 320 322 325 327 329 330 332 335 336 338 346 354 350 345 346 352 362 364 365 367 369 362 364 361 356 351 349 348 346 347 341
301 302 310 316 314 317 316 317 317 316 317 317 317 319 322 323 325 328 330 332 336 338 343 351 357 355 349 353 359 361 361 363 364 363 360 357 353 348 347 352 347 345 339 338
302 306 308 313 317 319 318 318 317 317 317 318 317 318 321 322 325 329 332 334 338 342 347 352 355 357 356 360 361 361 359 357 353 351 348 354 351 349 347 346 344 343 341 341
303 305 307 309 314 316 316 317 318 318 318 317 318 319 322 324 330 333 336 339 342 343 349 349 347 352 354 358 357 353 346 345 344 344 341 326 319 330 332 319 335 345 339 334
301 308 308 309 310 314 313 314 316 316 316 318 319 322 324 327 333 337 340 341 339 343 345 339 341 345 350 354 345 339 339 340 337 333 329 326 323 315 306 305 303 303 302 317
304 310 311 313 314 314 313 314 315 316 317 317 321 323 323 329 335 335 337 338 336 334 335 337 341 343 346 342 345 347 338 336 332 328 329 326 324 320 312 307 303 301 300 301
308 309 307 310 311 315 316 316 316 318 320 321 322 324 325 331 334 332 331 330 331 332 331 332 328 329 334 340 338 334 334 322 335 335 330 328 325 321 321 322 318 314 303 305
309 311 312 313 315 316 317 317 316 316 319 321 325 324 331 330 327 327 329 327 325 323 323 323 323 325 330 331 329 330 332 332 328 330 327 326 327 327 325 321 318 316 313 308
313 312 314 313 314 315 315 316 316 318 320 324 325 331 323 321 322 326 326 325 323 320 322 322 322 325 327 329 329 328 326 322 325 327 324 323 322 320 318 317 318 318 318 316
310 307 310 312 314 315 315 316 318 320 325 326 329 328 323 320 320 319 320 321 321 319 321 323 323 327 333 326 326 324 321 320 321 321 321 319 319 318 319 318 318 318 317 312
315 313 316 317 317 316 318 320 321 325 326 329 330 325 322 320 318 319 321 320 318 317 316 318 320 322 323 323 322 322 320 320 319 318 318 318 319 318 319 318 317 315 312 308
318 317 318 319 320 321 323 323 327 327 328 331 325 322 323 324 325 324 324 320 315 315 316 318 320 318 316 319 319 317 316 317 317 317 317 314 317 318 318 317 315 313 312 311
323 322 323 324 325 326 327 328 327 327 330 330 324 322 320 321 319 316 316 313 315 317 318 318 316 315 316 317 318 316 316 316 317 317 318 317 316 315 313 308 313 313 314 314
322 322 321 323 324 328 329 328 331 330 330 327 322 318 317 317 318 320 316 315 317 317 318 316 316 315 316 317 318 316 316 316 317 317 316 315 314 313 313 313 313 314 313 314
322 321 323 325 323 325 326 327 327 325 322 319 318 318 317 319 318 317 318 316 318 313 315 314 314 315 316 318 317 317 317 317 317 317 316 314 314 314 314 314 313 313 313 314
323 322 322 322 323 323 324 324 324 323 320 320 320 323 321 319 319 317 315 320 319 313 313 314 311 312 314 316 316 316 316 315 315 314 314 313 313 313 313 313 313 314 315 315
326 325 324 323 323 322 321 323 324 323 322 324 325 324 322 318 319 319 319 313 311 312 313 312 311 311 313 315 314 314 314 314 314 314 313 306 314 315 316 316 316 317 316 311
322 322 328 327 324 322 322 324 325 326 326 326 326 325 324 323 320 320 320 318 310 313 314 307 311 312 315 315 315 315 315 315 315 315 315 315 316 317 317 316 315 315 315 315
324 323 323 325 326 326 327 329 326 326 324 321 319 319 320 322 322 323 322 318 317 312 315 317 317 317 317 318 318 317 317 316 318 318 315 317 318 318 317 317 316 316 315 315
322 314 325 325 327 328 330 330 323 320 318 317 317 321 322 321 318 316 312 315 315 316 316 317 317 316 318 318 318 318 320 320 311 316 315 315 316 317 318 317 316 314 313 313
Wind_Speed
19 20 21 21 21 21 19 17 18 14 13 13 14 8 9 7 10 8 9 12 12 7 11 10 14 14 14 18 18 17 16 20 20 20 19 18 15 14 15 14 12 13 13 12
20 18 22 25 25 25 26 25 21 20 23 19 17 9 9 6 8 5 9 12 11 10 7 8 12 12 15 16 16 16 17 19 17 15 15 15 14 13 12 13 13 12 12 11
20 17 19 26 25 27 27 26 23 25 23 20 20 11 8 8 6 5 9 10 12 12 10 9 9 11 15 16 16 17 17 16 16 16 16 16 14 14 14 14 14 13 10 7
19 18 25 17 18 17 18 18 23 29 25 10 10 9 8 8 3 8 10 11 10 11 13 13 12 13 13 16 16 18 19 18 17 16 15 14 15 15 15 13 10 5 3 2
19 19 23 23 9 12 17 20 13 13 4 7 9 12 13 10 8 11 12 13 13 13 14 14 14 14 14 15 16 18 20 21 19 16 15 16 16 16 14 13 15 16 14 9
18 20 23 21 14 15 17 18 13 9 7 6 7 10 5 11 14 15 15 15 15 16 16 15 14 11 12 14 17 18 16 15 15 16 16 17 17 16 16 16 16 11 15 16
18 20 20 14 10 2 17 5 8 5 3 4 6 8 16 14 15 15 17 20 18 17 16 16 14 11 10 9 15 14 14 12 15 16 17 16 16 15 15 16 15 13 11 11
17 22 28 13 7 16 9 2 2 2 2 4 7 10 13 14 15 17 18 20 20 19 17 15 12 10 9 10 10 9 11 12 14 15 14 15 17 15 15 13 11 12 13 11
21 12 4 4 10 3 6 7 3 5 6 6 9 12 13 14 17 17 18 18 18 18 19 15 10 8 8 6 6 11 13 14 14 14 13 14 15 13 13 13 12 12 11 10
23 21 25 17 15 10 9 10 7 8 8 9 11 13 15 16 16 16 15 17 17 18 17 13 10 8 5 7 9 13 14 13 11 12 11 15 11 10 9 9 10 11 10 8
29 28 25 27 19 13 18 18 14 14 13 13 13 13 13 17 17 16 16 15 15 16 14 9 6 6 3 7 12 11 13 12 13 13 13 16 16 13 10 11 7 8 6 7
21 22 21 21 22 25 23 13 13 16 17 17 14 13 14 14 15 17 16 14 11 12 6 1 1 3 5 8 15 16 16 13 13 14 13 14 13 12 23 22 26 19 18 10
22 23 26 27 25 23 22 19 16 17 18 16 15 13 14 14 14 15 15 11 4 2 3 4 3 7 7 15 15 15 18 16 13 13 13 14 14 13 11 10 19 16 15 17
23 21 26 29 20 20 18 18 17 15 15 14 14 13 14 12 7 6 4 1 4 4 8 10 12 12 11 14 16 15 16 13 8 8 7 8 7 10 12 11 8 9 9 10
25 25 26 23 21 18 17 15 15 15 14 13 11 11 11 5 2 4 6 9 10 12 12 12 13 13 12 12 16 16 13 10 9 7 9 6 9 9 10 9 8 9 8 6
23 24 23 23 20 17 15 15 15 14 13 12 9 2 8 7 6 7 9 8 10 10 9 12 11 9 12 15 14 13 12 11 13 11 10 7 9 8 8 8 8 7 6 7
11 14 11 14 15 15 16 14 13 12 10 7 4 8 10 7 11 12 11 10 11 13 11 9 8 8 13 15 13 11 10 10 9 10 11 7 6 7 7 7 7 6 6 6
8 6 13 12 11 12 12 13 10 9 8 8 13 12 9 10 11 9 8 9 11 15 14 10 10 12 11 12 12 11 10 9 9 11 8 7 7 7 7 8 8 8 8 5
8 6 5 3 6 7 8 10 10 11 7 13 16 11 10 12 12 14 14 14 11 16 12 6 7 12 11 9 7 8 11 11 10 9 9 8 8 7 7 7 7 7 7 7
9 5 4 7 7 7 7 8 17 10 10 16 16 13 13 12 12 11 12 13 10 9 9 8 9 11 14 13 11 8 12 11 10 8 7 8 8 8 7 6 5 5 5 4
13 5 3 3 5 8 13 10 15 15 16 16 15 14 13 11 10 10 11 12 11 11 11 12 10 10 10 9 9 10 10 10 9 8 8 8 8 7 6 6 5 4 4 3
14 16 14 10 15 16 14 12 14 15 16 16 13 13 13 14 14 14 13 11 7 3 9 8 8 12 8 7 8 9 10 9 8 8 8 7 7 6 5 5 4 3 3 2
15 15 16 19 18 16 15 14 14 16 15 12 10 10 11 11 10 10 11 8 9 10 9 9 8 7 7 9 9 9 10 9 8 8 6 5 5 4 3 3 3 2 1 1
14 14 14 15 15 15 16 14 14 15 14 11 12 13 10 9 11 11 11 11 11 12 11 9 7 6 6 8 8 8 8 8 7 6 6 1 4 3 2 1 1 1 2 4
11 12 12 14 14 11 13 13 13 12 12 12 12 12 14 10 8 9 10 9 6 10 9 4 0 1 8 8 8 8 7 6 6 4 4 3 2 1 2 3 4 4 4 5
12 9 9 12 10 10 11 10 10 9 11 12 10 9 10 9 8 8 8 8 8 8 8 7 7 7 7 7 7 7 6 5 2 3 2 3 3 5 5 6 7 6 6 6
9 9 8 9 10 10 10 10 13 12 8 8 9 8 9 8 8 8 5 6 7 7 7 6 7 5 5 5 4 4 2 2 4 6 7 6 5 6 6 7 7 6 5 5
Wind_Direction
273 278 281 279 270 269 253 254 267 282 249 258 274 352 336 352 14 27 29 22 17 342 287 242 190 214 215 219 201 206 201 204 206 206 208 208 205 210 212 208 207 218 222 224
268 273 268 267 262 257 255 255 253 253 256 267 278 288 289 334 355 23 9 358 356 356 343 295 274 231 223 221 223 206 206 203 205 202 202 201 196 194 197 201 205 211 219 214
262 264 273 259 252 256 258 254 252 248 249 248 255 261 288 304 305 15 353 350 340 334 332 322 299 267 235 224 211 206 208 213 206 196 198 192 184 180 189 196 196 203 205 208
266 272 253 258 271 264 271 263 243 245 248 244 273 283 273 274 39 347 341 338 328 327 324 318 308 295 278 223 210 210 201 202 206 202 195 187 178 179 184 190 190 142 93 68
256 249 259 262 244 274 244 257 218 255 216 240 264 278 253 152 352 335 331 327 328 324 321 308 297 283 262 235 216 212 210 202 195 188 190 183 183 178 173 158 109 105 97 13
242 246 250 266 262 323 237 253 180 209 207 245 282 246 144 1 337 333 330 327 320 328 317 321 316 296 259 233 217 213 215 209 192 181 178 180 176 177 162 143 134 148 136 159
238 252 258 264 258 345 222 269 119 172 201 273 285 337 321 325 326 324 323 321 326 324 324 331 327 310 266 223 229 221 210 198 186 182 174 165 169 164 150 151 148 149 132 118
232 247 244 242 272 232 11 95 149 213 300 310 314 307 310 318 316 318 320 321 326 321 325 329 329 309 266 231 237 197 191 173 178 163 172 158 156 152 154 141 132 122 139 124
271 256 274 316 284 58 317 272 246 308 313 314 311 314 314 310 312 315 316 316 318 319 317 319 330 306 272 234 176 164 165 160 160 161 155 153 144 138 139 144 147 149 148 153
274 257 263 258 245 241 284 271 275 288 307 304 309 311 307 309 311 311 310 309 317 314 305 312 323 301 260 156 159 157 154 152 139 130 126 133 130 137 137 149 151 150 143 146
268 257 263 262 261 267 268 275 257 281 300 308 307 308 312 307 312 312 308 312 327 306 301 316 337 326 169 150 156 130 115 120 118 110 108 79 60 42 69 44 57 104 129 142
252 259 261 256 256 257 260 266 266 288 290 289 295 299 306 306 316 310 314 319 312 294 299 289 127 167 138 132 112 118 121 126 121 116 110 94 94 76 43 48 48 41 38 80
266 263 264 265 263 258 264 268 277 276 275 280 286 292 303 298 308 308 307 317 333 307 204 164 134 112 121 119 139 122 112 115 118 120 123 128 126 123 114 75 69 56 61 66
256 272 250 256 260 253 246 251 254 256 265 269 281 293 297 316 294 295 284 59 62 62 54 68 65 55 54 88 95 94 85 58 96 102 106 116 122 123 131 134 134 112 67 77
249 241 249 248 247 241 235 233 240 253 261 272 279 280 296 259 104 118 95 88 91 84 75 71 76 72 88 94 99 98 100 106 112 113 98 127 121 118 102 117 110 106 115 112
254 218 236 222 225 221 224 224 231 247 255 267 265 28 87 97 94 88 82 72 88 77 71 79 78 90 90 93 93 98 95 101 109 116 115 110 93 98 103 113 134 147 141 130
99 147 196 211 204 208 211 222 232 242 243 230 223 122 107 113 92 80 78 76 71 61 50 62 65 87 105 104 96 93 92 90 103 103 87 86 113 121 123 122 129 124 110 65
67 132 179 190 192 196 203 207 218 217 201 171 110 103 103 105 100 89 87 94 90 80 51 23 62 74 77 93 106 112 107 98 89 87 113 129 114 114 118 122 120 122 128 140
89 122 199 247 211 206 230 212 182 136 140 120 108 94 110 114 115 111 103 85 66 79 88 101 80 89 77 72 97 96 92 95 96 96 98 121 109 110 108 115 125 134 141 160
57 98 173 161 166 180 173 142 137 145 128 114 108 102 86 86 86 91 90 81 74 82 114 112 101 85 77 55 46 77 96 95 94 104 109 104 99 92 89 77 110 122 133 129
24 50 50 226 181 133 99 104 123 113 107 102 100 94 94 98 109 106 95 84 67 69 61 51 57 73 73 75 72 74 92 107 117 112 105 103 116 116 123 125 117 120 112 91
9 46 35 73 93 82 81 78 88 97 94 92 93 101 100 92 88 81 77 90 87 35 73 73 78 69 93 109 97 95 89 96 103 107 108 113 122 128 123 128 128 125 118 112
32 40 43 52 85 81 83 81 83 88 93 98 104 111 104 107 110 98 89 88 81 64 78 76 70 55 76 86 87 88 93 95 94 94 103 108 103 95 102 106 104 111 101 311
40 44 59 62 71 71 76 76 81 87 92 97 106 105 103 93 90 86 96 86 72 67 66 74 62 19 73 87 86 85 86 89 92 90 84 81 99 116 129 158 240 243 255 201
60 50 53 75 80 76 83 88 91 88 92 94 89 82 86 82 89 93 91 101 132 98 99 110 5 217 90 91 93 96 93 83 80 102 94 88 63 42 282 278 268 267 270 267
32 64 63 58 75 93 107 112 104 103 102 97 88 93 88 90 105 113 104 106 116 140 121 118 94 102 95 84 88 83 78 96 88 71 355 342 324 289 293 292 298 294 287 281
53 19 73 74 67 75 88 83 95 92 84 88 88 89 90 82 74 86 102 110 102 99 102 115 113 82 76 66 72 68 58 39 41 357 354 339 314 313 307 300 294 286 286 289